TimeEDT,TemperatureF,Dew PointF,Humidity,Sea Level PressureIn,VisibilityMPH,Wind Direction,Wind SpeedMPH,Gust SpeedMPH,PrecipitationIn,Events,Conditions,WindDirDegrees,DateUTC
12:15 AM,60.4,52.7,76,29.94,10.0,Calm,Calm,-,N/A,,Mostly Cloudy,0,2013-03-12 04:15:00
12:35 AM,60.3,52.9,77,29.93,10.0,SE,4.6,-,N/A,,Scattered Clouds,140,2013-03-12 04:35:00
1:15 AM,60.1,53.4,79,29.91,10.0,SE,5.8,-,N/A,Rain,Rain,140,2013-03-12 05:15:00
1:35 AM,59.5,54.1,82,29.91,10.0,SSE,5.8,-,N/A,,Mostly Cloudy,150,2013-03-12 05:35:00
1:55 AM,59.9,54.5,82,29.90,10.0,SE,8.1,-,N/A,,Overcast,140,2013-03-12 05:55:00
2:15 AM,59.2,54.9,86,29.89,10.0,SSE,5.8,-,N/A,Rain,Rain,150,2013-03-12 06:15:00
2:35 AM,59.0,55.0,87,29.88,10.0,SSE,6.9,-,N/A,Rain,Light Rain,150,2013-03-12 06:35:00
2:55 AM,58.3,55.4,90,29.88,10.0,SE,4.6,-,N/A,Rain,Rain,140,2013-03-12 06:55:00
3:15 AM,57.9,55.6,92,29.87,10.0,SE,4.6,-,0.01,Rain,Rain,140,2013-03-12 07:15:00
3:35 AM,57.6,55.8,94,29.86,10.0,SE,5.8,-,0.02,Rain,Light Rain,140,2013-03-12 07:35:00
3:55 AM,57.6,55.8,94,29.85,10.0,Calm,Calm,-,0.03,Rain,Light Rain,0,2013-03-12 07:55:00
4:15 AM,57.7,56.3,95,29.84,10.0,SSE,5.8,-,0.01,Rain,Light Rain,150,2013-03-12 08:15:00
4:35 AM,58.1,56.5,94,29.82,7.0,SSE,5.8,-,0.02,Rain,Rain,150,2013-03-12 08:35:00
4:55 AM,58.5,57.2,96,29.83,10.0,SSE,6.9,-,0.03,Rain,Rain,160,2013-03-12 08:55:00
5:15 AM,59.0,57.6,95,29.81,10.0,SSE,5.8,-,N/A,Rain,Rain,150,2013-03-12 09:15:00
5:35 AM,59.4,58.1,96,29.81,10.0,SSE,4.6,-,0.02,Rain,Rain,150,2013-03-12 09:35:00
5:55 AM,59.9,58.5,95,29.81,10.0,SSE,6.9,-,0.04,Rain,Rain,160,2013-03-12 09:55:00
6:15 AM,60.4,59.0,95,29.80,5.0,SSE,8.1,-,0.04,Rain,Rain,160,2013-03-12 10:15:00
6:35 AM,60.8,59.4,95,29.79,10.0,South,9.2,16.1,0.07,Rain,Rain,170,2013-03-12 10:35:00
7:15 AM,61.3,59.9,95,29.78,10.0,SSE,13.8,19.6,0.01,Rain,Rain,160,2013-03-12 11:15:00
7:35 AM,61.7,59.9,94,29.78,10.0,South,8.1,21.9,0.02,Rain,Light Rain,190,2013-03-12 11:35:00
7:55 AM,61.7,59.4,92,29.78,10.0,SSE,10.4,-,0.03,Rain,Heavy Rain,160,2013-03-12 11:55:00
8:15 AM,61.7,59.5,93,29.78,10.0,South,15.0,20.7,N/A,,Drizzle,180,2013-03-12 12:15:00
8:35 AM,61.7,59.4,92,29.79,7.0,South,12.7,19.6,0.02,Rain,Rain,180,2013-03-12 12:35:00
8:55 AM,61.7,59.5,93,29.79,10.0,South,10.4,24.2,0.03,Rain,Rain,190,2013-03-12 12:55:00
9:35 AM,61.9,59.4,91,29.81,10.0,SSW,9.2,17.3,0.06,,Overcast,200,2013-03-12 13:35:00
9:55 AM,62.6,59.9,91,29.82,10.0,South,5.8,-,0.07,Rain,Rain,190,2013-03-12 13:55:00
10:15 AM,62.6,60.3,92,29.82,10.0,SSW,9.2,-,N/A,,Overcast,200,2013-03-12 14:15:00
10:35 AM,63.1,60.3,90,29.81,10.0,South,8.1,-,N/A,,Overcast,190,2013-03-12 14:35:00
10:55 AM,62.6,60.1,91,29.82,10.0,South,8.1,-,N/A,,Light Drizzle,190,2013-03-12 14:55:00
11:15 AM,63.5,60.3,89,29.82,10.0,SSW,9.2,-,N/A,,Overcast,200,2013-03-12 15:15:00
11:35 AM,64.4,60.6,88,29.82,10.0,SSW,11.5,17.3,N/A,,Overcast,210,2013-03-12 15:35:00
11:55 AM,64.4,60.1,86,29.82,10.0,SSW,9.2,-,N/A,,Overcast,200,2013-03-12 15:55:00
12:15 PM,65.1,60.4,85,29.82,10.0,SSW,10.4,-,N/A,,Overcast,210,2013-03-12 16:15:00
12:35 PM,66.0,60.3,82,29.81,10.0,SSW,11.5,17.3,N/A,,Overcast,210,2013-03-12 16:35:00
12:55 PM,67.5,59.7,76,29.81,10.0,SW,11.5,23.0,N/A,,Mostly Cloudy,230,2013-03-12 16:55:00
1:15 PM,67.6,59.2,74,29.81,10.0,SSW,10.4,18.4,N/A,,Mostly Cloudy,210,2013-03-12 17:15:00
1:35 PM,68.7,59.4,72,29.80,10.0,SW,12.7,17.3,N/A,,Mostly Cloudy,220,2013-03-12 17:35:00
1:55 PM,68.9,57.6,67,29.80,10.0,West,8.1,-,N/A,,Mostly Cloudy,260,2013-03-12 17:55:00
2:15 PM,68.9,57.2,66,29.78,10.0,SW,10.4,-,N/A,,Mostly Cloudy,230,2013-03-12 18:15:00
2:35 PM,71.4,56.1,58,29.77,10.0,WSW,12.7,-,N/A,,Scattered Clouds,240,2013-03-12 18:35:00
2:55 PM,69.8,57.0,64,29.77,10.0,WNW,8.1,-,N/A,,Scattered Clouds,300,2013-03-12 18:55:00
3:15 PM,71.1,56.1,59,29.75,10.0,West,6.9,16.1,N/A,,Scattered Clouds,260,2013-03-12 19:15:00
3:35 PM,71.8,55.9,57,29.76,10.0,West,11.5,-,N/A,,Scattered Clouds,280,2013-03-12 19:35:00
3:55 PM,71.1,55.2,57,29.76,10.0,West,12.7,16.1,N/A,,Scattered Clouds,280,2013-03-12 19:55:00
4:15 PM,71.8,54.5,54,29.76,10.0,West,13.8,17.3,N/A,,Scattered Clouds,270,2013-03-12 20:15:00
4:35 PM,71.8,53.6,53,29.76,10.0,West,8.1,18.4,N/A,,Scattered Clouds,270,2013-03-12 20:35:00
5:15 PM,71.2,51.1,49,29.78,10.0,WNW,15.0,20.7,N/A,,Scattered Clouds,300,2013-03-12 21:15:00
5:35 PM,70.5,50.2,48,29.78,10.0,WNW,11.5,18.4,N/A,,Scattered Clouds,300,2013-03-12 21:35:00
6:15 PM,69.8,48.6,47,29.79,10.0,West,8.1,-,N/A,,Clear,280,2013-03-12 22:15:00
6:35 PM,69.1,47.5,46,29.80,10.0,WNW,8.1,-,N/A,,Clear,300,2013-03-12 22:35:00
6:55 PM,68.0,47.5,48,29.81,10.0,WNW,6.9,-,N/A,,Clear,300,2013-03-12 22:55:00
7:15 PM,66.4,46.6,49,29.82,10.0,NW,8.1,-,N/A,,Clear,320,2013-03-12 23:15:00
7:35 PM,65.3,43.7,46,29.83,10.0,NW,8.1,-,N/A,,Clear,310,2013-03-12 23:35:00
7:55 PM,63.3,41.2,44,29.85,10.0,NNW,6.9,-,N/A,,Clear,330,2013-03-12 23:55:00
8:15 PM,61.7,37.4,41,29.86,10.0,NW,5.8,-,N/A,,Clear,320,2013-03-13 00:15:00
8:35 PM,59.7,35.6,41,29.87,10.0,NW,8.1,-,N/A,,Clear,320,2013-03-13 00:35:00
9:15 PM,59.2,32.0,36,29.90,10.0,NW,12.7,18.4,N/A,,Clear,320,2013-03-13 01:15:00
9:35 PM,58.1,31.6,37,29.91,10.0,NW,10.4,18.4,N/A,,Clear,320,2013-03-13 01:35:00
9:55 PM,56.8,31.8,39,29.92,10.0,WNW,9.2,-,N/A,,Clear,300,2013-03-13 01:55:00
10:15 PM,55.8,31.8,40,29.93,10.0,NW,8.1,-,N/A,,Clear,310,2013-03-13 02:15:00
10:35 PM,55.0,31.6,41,29.93,10.0,NW,6.9,-,N/A,,Clear,310,2013-03-13 02:35:00
10:55 PM,53.6,32.0,44,29.94,10.0,NW,6.9,-,N/A,,Clear,310,2013-03-13 02:55:00
11:15 PM,53.1,32.0,45,29.95,10.0,NW,4.6,-,N/A,,Clear,320,2013-03-13 03:15:00
11:35 PM,52.0,32.5,48,29.95,10.0,NNW,3.5,-,N/A,,Clear,330,2013-03-13 03:35:00
11:55 PM,50.9,32.4,49,29.95,10.0,NNW,6.9,-,N/A,,Clear,340,2013-03-13 03:55:00